Time,TemperatureF,DewpointF,PressureIn,WindDirection,WindDirectionDegrees,WindSpeedMPH,WindSpeedGustMPH,Humidity,HourlyPrecipIn,Conditions,Clouds,dailyrainin,SolarRadiationWatts/m^2,SoftwareType,DateUTC
2014-12-18 00:02:00,35.0,33.0,-100.00,North,-999,0.0,5.0,94,0.00,,,0.16,0.000000,,2014-12-18 08:02:00,
2014-12-18 00:11:00,35.0,33.0,-100.00,North,-999,0.0,5.0,94,0.00,,,0.16,0.000000,,2014-12-18 08:11:00,
2014-12-18 00:42:00,35.0,34.0,-100.00,North,-999,0.0,5.0,95,0.00,,,0.14,0.000000,,2014-12-18 08:42:00,
2014-12-18 00:52:00,35.0,34.0,-100.00,North,-999,0.0,5.0,95,0.00,,,0.14,0.000000,,2014-12-18 08:52:00,
2014-12-18 01:02:00,35.0,34.0,-100.00,North,-999,0.0,5.0,95,0.00,,,0.14,0.000000,,2014-12-18 09:02:00,
2014-12-18 01:11:00,35.0,34.0,-100.00,North,-999,0.0,5.0,95,0.00,,,0.14,0.000000,,2014-12-18 09:11:00,
2014-12-18 01:44:00,35.0,34.0,-100.00,North,-999,0.0,2.0,96,0.01,,,0.11,0.000000,,2014-12-18 09:44:00,
2014-12-18 01:53:00,35.0,34.0,-100.00,North,-999,0.0,2.0,96,0.01,,,0.11,0.000000,,2014-12-18 09:53:00,
2014-12-18 02:03:00,35.0,34.0,-100.00,North,-999,0.0,2.0,96,0.01,,,0.11,0.000000,,2014-12-18 10:03:00,
2014-12-18 02:12:00,35.0,34.0,-100.00,North,-999,0.0,2.0,96,0.01,,,0.11,0.000000,,2014-12-18 10:12:00,
2014-12-18 02:43:00,35.0,34.0,-100.00,North,-999,0.0,2.0,97,0.00,,,0.10,0.000000,,2014-12-18 10:43:00,
2014-12-18 02:53:00,35.0,34.0,-100.00,North,-999,0.0,2.0,97,0.00,,,0.10,0.000000,,2014-12-18 10:53:00,
2014-12-18 03:02:00,35.0,34.0,-100.00,North,-999,0.0,2.0,97,0.00,,,0.10,0.000000,,2014-12-18 11:02:00,
2014-12-18 03:12:00,35.0,34.0,-100.00,North,-999,0.0,2.0,97,0.00,,,0.10,0.000000,,2014-12-18 11:12:00,
2014-12-18 03:42:00,35.0,34.0,-100.00,North,-999,0.0,2.0,95,0.00,,,0.08,0.000000,,2014-12-18 11:42:00,
2014-12-18 03:52:00,35.0,34.0,-100.00,North,-999,0.0,2.0,95,0.00,,,0.08,0.000000,,2014-12-18 11:52:00,
2014-12-18 04:02:00,35.0,34.0,-100.00,North,-999,0.0,2.0,95,0.00,,,0.08,0.000000,,2014-12-18 12:02:00,
2014-12-18 04:12:00,35.0,34.0,-100.00,North,-999,0.0,2.0,95,0.00,,,0.08,0.000000,,2014-12-18 12:12:00,
2014-12-18 04:42:00,35.0,33.0,-100.00,North,-999,0.0,2.0,93,0.00,,,0.07,0.000000,,2014-12-18 12:42:00,
2014-12-18 04:52:00,35.0,33.0,-100.00,North,-999,0.0,2.0,93,0.00,,,0.07,0.000000,,2014-12-18 12:52:00,
2014-12-18 05:02:00,35.0,33.0,-100.00,North,-999,0.0,2.0,93,0.00,,,0.07,0.000000,,2014-12-18 13:02:00,
2014-12-18 05:12:00,35.0,33.0,-100.00,North,-999,0.0,2.0,93,0.00,,,0.07,0.000000,,2014-12-18 13:12:00,
2014-12-18 05:42:00,34.0,32.0,-100.00,North,6,1.0,3.0,91,0.00,,,0.07,0.000000,,2014-12-18 13:42:00,
2014-12-18 05:52:00,34.0,32.0,-100.00,North,6,1.0,3.0,91,0.00,,,0.07,0.000000,,2014-12-18 13:52:00,
2014-12-18 06:02:00,34.0,32.0,-100.00,North,6,1.0,3.0,91,0.00,,,0.07,0.000000,,2014-12-18 14:02:00,
2014-12-18 06:12:00,34.0,32.0,-100.00,North,6,1.0,3.0,91,0.00,,,0.07,0.000000,,2014-12-18 14:12:00,
2014-12-18 06:42:00,34.0,31.0,-100.00,North,4,2.0,3.0,89,0.00,,,0.05,0.000000,,2014-12-18 14:42:00,
2014-12-18 06:52:00,34.0,31.0,-100.00,North,4,2.0,3.0,89,0.00,,,0.05,0.000000,,2014-12-18 14:52:00,
2014-12-18 07:02:00,34.0,31.0,-100.00,North,4,2.0,3.0,89,0.00,,,0.05,0.000000,,2014-12-18 15:02:00,
2014-12-18 07:11:00,34.0,31.0,-100.00,North,4,2.0,3.0,89,0.00,,,0.05,0.000000,,2014-12-18 15:11:00,
2014-12-18 07:44:00,33.0,30.0,-100.00,North,-999,0.0,3.0,90,0.00,,,0.05,1.000000,,2014-12-18 15:44:00,
2014-12-18 07:54:00,33.0,30.0,-100.00,North,-999,0.0,3.0,90,0.00,,,0.05,1.000000,,2014-12-18 15:54:00,
2014-12-18 08:03:00,33.0,30.0,-100.00,North,-999,0.0,3.0,90,0.00,,,0.05,1.000000,,2014-12-18 16:03:00,
2014-12-18 08:12:00,33.0,30.0,-100.00,North,-999,0.0,3.0,90,0.00,,,0.05,1.000000,,2014-12-18 16:12:00,
2014-12-18 08:43:00,36.0,31.0,-100.00,North,8,1.0,2.0,82,0.00,,,0.05,31.000000,,2014-12-18 16:43:00,
2014-12-18 08:53:00,36.0,31.0,-100.00,North,8,1.0,2.0,82,0.00,,,0.05,31.000000,,2014-12-18 16:53:00,
2014-12-18 09:03:00,36.0,31.0,-100.00,North,8,1.0,2.0,82,0.00,,,0.05,31.000000,,2014-12-18 17:03:00,
2014-12-18 09:12:00,36.0,31.0,-100.00,North,8,1.0,2.0,82,0.00,,,0.05,31.000000,,2014-12-18 17:12:00,
2014-12-18 09:43:00,37.0,31.0,-100.00,North,-999,0.0,3.0,80,0.00,,,0.05,109.000000,,2014-12-18 17:43:00,
2014-12-18 09:52:00,37.0,31.0,-100.00,North,-999,0.0,3.0,80,0.00,,,0.05,109.000000,,2014-12-18 17:52:00,
2014-12-18 10:02:00,37.0,31.0,-100.00,North,-999,0.0,3.0,80,0.00,,,0.05,109.000000,,2014-12-18 18:02:00,
2014-12-18 10:12:00,37.0,31.0,-100.00,North,-999,0.0,3.0,80,0.00,,,0.05,109.000000,,2014-12-18 18:12:00,
2014-12-18 10:43:00,45.0,33.0,-100.00,SE,127,2.0,6.0,63,0.00,,,0.05,261.000000,,2014-12-18 18:43:00,
2014-12-18 10:53:00,45.0,33.0,-100.00,SE,127,2.0,6.0,63,0.00,,,0.05,261.000000,,2014-12-18 18:53:00,
2014-12-18 11:03:00,45.0,33.0,-100.00,SE,127,2.0,6.0,63,0.00,,,0.05,261.000000,,2014-12-18 19:03:00,
2014-12-18 11:12:00,45.0,33.0,-100.00,SE,127,2.0,6.0,63,0.00,,,0.05,261.000000,,2014-12-18 19:12:00,
2014-12-18 11:42:00,46.0,36.0,-100.00,South,177,2.0,4.0,68,0.00,,,0.05,357.000000,,2014-12-18 19:42:00,
2014-12-18 11:52:00,46.0,36.0,-100.00,South,177,2.0,4.0,68,0.00,,,0.05,357.000000,,2014-12-18 19:52:00,
2014-12-18 12:02:00,46.0,36.0,-100.00,South,177,2.0,4.0,68,0.00,,,0.05,357.000000,,2014-12-18 20:02:00,
2014-12-18 12:12:00,46.0,36.0,-100.00,South,177,2.0,4.0,68,0.00,,,0.05,357.000000,,2014-12-18 20:12:00,
2014-12-18 12:42:00,49.0,39.0,-100.00,South,181,2.0,5.0,67,0.00,,,0.05,430.000000,,2014-12-18 20:42:00,
2014-12-18 12:52:00,49.0,39.0,-100.00,South,181,2.0,5.0,67,0.00,,,0.05,430.000000,,2014-12-18 20:52:00,
2014-12-18 13:02:00,49.0,39.0,-100.00,South,181,2.0,5.0,67,0.00,,,0.05,430.000000,,2014-12-18 21:02:00,
2014-12-18 13:11:00,49.0,39.0,-100.00,South,181,2.0,5.0,67,0.00,,,0.05,430.000000,,2014-12-18 21:11:00,
2014-12-18 13:43:00,48.0,38.0,-100.00,SSW,199,1.0,5.0,69,0.00,,,0.05,307.000000,,2014-12-18 21:43:00,
2014-12-18 13:54:00,48.0,38.0,-100.00,SSW,199,1.0,5.0,69,0.00,,,0.05,307.000000,,2014-12-18 21:54:00,
2014-12-18 14:03:00,48.0,38.0,-100.00,SSW,199,1.0,5.0,69,0.00,,,0.05,307.000000,,2014-12-18 22:03:00,
2014-12-18 14:13:00,48.0,38.0,-100.00,SSW,199,1.0,5.0,69,0.00,,,0.05,307.000000,,2014-12-18 22:13:00,
2014-12-18 14:42:00,46.0,39.0,-100.00,South,186,2.0,6.0,76,0.00,,,0.03,241.000000,,2014-12-18 22:42:00,
2014-12-18 14:53:00,46.0,39.0,-100.00,South,186,2.0,6.0,76,0.00,,,0.03,241.000000,,2014-12-18 22:53:00,
2014-12-18 15:02:00,46.0,39.0,-100.00,South,186,2.0,6.0,76,0.00,,,0.03,241.000000,,2014-12-18 23:02:00,
2014-12-18 15:12:00,46.0,39.0,-100.00,South,186,2.0,6.0,76,0.00,,,0.03,241.000000,,2014-12-18 23:12:00,
2014-12-18 15:43:00,45.0,39.0,-100.00,SSW,206,2.0,6.0,80,0.00,,,0.02,84.000000,,2014-12-18 23:43:00,
2014-12-18 15:52:00,45.0,39.0,-100.00,SSW,206,2.0,6.0,80,0.00,,,0.02,84.000000,,2014-12-18 23:52:00,
2014-12-18 16:02:00,45.0,39.0,-100.00,SSW,206,2.0,6.0,80,0.00,,,0.02,84.000000,,2014-12-19 00:02:00,
2014-12-18 16:12:00,45.0,39.0,-100.00,SSW,206,2.0,6.0,80,0.00,,,0.02,84.000000,,2014-12-19 00:12:00,
2014-12-18 16:42:00,43.0,39.0,-100.00,North,-999,0.0,4.0,86,0.00,,,0.01,28.000000,,2014-12-19 00:42:00,
2014-12-18 16:52:00,43.0,39.0,-100.00,North,-999,0.0,4.0,86,0.00,,,0.01,28.000000,,2014-12-19 00:52:00,
2014-12-18 17:02:00,43.0,39.0,-100.00,North,-999,0.0,4.0,86,0.00,,,0.01,28.000000,,2014-12-19 01:02:00,
2014-12-18 17:12:00,43.0,39.0,-100.00,North,-999,0.0,4.0,86,0.00,,,0.01,28.000000,,2014-12-19 01:12:00,
2014-12-18 17:42:00,38.0,36.0,-100.00,North,-999,0.0,1.0,94,0.00,,,0.01,4.000000,,2014-12-19 01:42:00,
2014-12-18 17:52:00,38.0,36.0,-100.00,North,-999,0.0,1.0,94,0.00,,,0.01,4.000000,,2014-12-19 01:52:00,
2014-12-18 18:02:00,38.0,36.0,-100.00,North,-999,0.0,1.0,94,0.00,,,0.01,4.000000,,2014-12-19 02:02:00,
2014-12-18 18:11:00,38.0,36.0,-100.00,North,-999,0.0,1.0,94,0.00,,,0.01,4.000000,,2014-12-19 02:11:00,
2014-12-18 18:42:00,37.0,36.0,-100.00,North,-999,0.0,0.0,96,0.00,,,0.01,0.000000,,2014-12-19 02:42:00,